DELTA 1 DEB, 7160

Orbit data source: Space-Track

DELTA 1 DEB, 7160 is space debris in SSO originally from a launch on Tue, 06 Nov 1973 UTC launched from the Air Force Western Test Range (AFWTR). Debris objects in space refer to the collection of defunct objects orbiting the Earth. Examples of debris include non-operational satellites, rocket bodies, and fragments generated from explosions, collisions, or faulty payload assembly.

Loading next visibility...
Identifier
7160, 1973-086DY
Orbit
SSO
Country
Flag of USUS
Related business
Manufacturer
Unknown
Mission
Spacecraft
Bus & Motor
Unknown
Mass
Unknown
Launch date (UTC)
1973-11-06 (52 years ago)
Launch vehicle
Unknown
Launch site
Air Force Western Test Range (AFWTR)
Object type
Payload
Rocket body
Debris
Shape & HBR
Unknown shape, 0.1 m
Radar Cross Section
Small (<0.1 m²)

Expand to show TLE details & history
Last TLE update: 15 hours ago

TLE from 15 hours ago
0 DELTA 1 DEB
1 07160U 73086DY  26034.44422737  .00000076  00000-0  95330-3 0  9992
2 07160 102.1198   0.9894 0081801 240.2594 242.1503 12.35195485349277
Epoch: 2026-02-03T10:39Z
TLE epoch observation values (Epoch: 2026-02-03T10:39:41.244Z)
Latitude
56.48847°
Longitude
-93.72964°
Altitude
1,566.878 km
Speed
7.076 km/s
True Right ascension
13h 19m 16s
True Declination
56° 20' 46"
Sunlit
Object was in daylight at epoch
Visualization orbit readout
Latitude
Unknown
Longitude
Unknown
Altitude
Unknown
Speed
Unknown
Apparent Right ascension
Unknown
Apparent Declination
Unknown
Sunlit
N/A
Visualization observer readout
Local Sidereal Time
03:19:44
Azimuth
Unknown
Elevation
Unknown
Doppler factor
Unknown
Orbital elements
Apogee altitude
1,589.269 km
Perigee altitude
1,459.979 km
Semi-major axis
7,902.761 km
Eccentricity
0.00818
Inclination
102.1198°
RAAN
0.9894°
Arg. of periapsis
240.2594°
True anomaly
241.32547°
Mean anomaly
242.1503°
Eccentric anomaly
241.73749°
Mean motion
3.08941 °/min
Orbital period
116.53 mins
BSTAR
0.0009533
Loading maneuver chart data...
Computing Atmospheric mass density...
Loading historical data...
Loading historical data...
Loading historical data...
Loading historical data...
Loading historical data...
Loading historical data...
Loading historical data...

Documentation

Showing up to 5 results
|